GLOBAL-12 (49772 NORAD) Tracking and Keplerian Element Data
This shows tracking and keplerian element data for the satellite.
Feedback or suggestion? Click here.
Element | Value |
Catalog | 49772 |
Name | GLOBAL-12 |
Epoch Orbit | 2627 |
Epoch Day | 140.81959153 |
Epoch Year | 2022 |
RAAN | 235.003 |
Inclination | 53.223 |
Eccentricity | 0.0002302 |
Argument of Perigee | 249.2646 |
Mean Anonmoly | 110.336 |
Mean Motion | 15.46050116 |
Decay Rate | 4.537E-05 |
L1 | 1 49772U 21115BA 22140.81959153 .00004537 00000+0 10000-3 0 9991 |
L2 | 2 49772 53.2230 235.0030 0002302 249.2646 110.3360 15.46050116 26279 |
Live tracking and technical data element details for GLOBAL-12 (NORAD 49772). GLOBAL-12 can be tracked NOW for your location showing map with azimuth and elevation plus other details from your city location.
Track the satellite on the map from your city or location and see movement details for azimuth, elevation, latitude, longitude, range, height, and movement on the map or in text.
IsCatalogInMostPopularTable: catalog: 49772, numindb: 24
Update: records affected: 1
GetName: 49772 GLOBAL-12
Hit Count: updated at: Mon, 23 May 2022 19:57:44 GMT